TimeEST,TemperatureF,Dew PointF,Humidity,Sea Level PressureIn,VisibilityMPH,Wind Direction,Wind SpeedMPH,Gust SpeedMPH,PrecipitationIn,Events,Conditions,WindDirDegrees,DateUTC
12:22 AM,44.6,42.8,93,29.50,10.0,South,10.4,-,N/A,,Overcast,170,2012-03-03 05:22:00
12:54 AM,44.1,43.0,96,29.51,10.0,South,5.8,-,N/A,,Mostly Cloudy,180,2012-03-03 05:54:00
1:05 AM,44.6,42.8,93,29.50,10.0,South,10.4,-,N/A,,Scattered Clouds,180,2012-03-03 06:05:00
1:14 AM,44.6,44.6,100,29.50,10.0,South,9.2,-,N/A,,Mostly Cloudy,190,2012-03-03 06:14:00
1:39 AM,46.4,44.6,93,29.49,10.0,South,9.2,-,N/A,,Scattered Clouds,180,2012-03-03 06:39:00
1:54 AM,46.9,45.0,93,29.50,10.0,South,6.9,-,N/A,,Partly Cloudy,190,2012-03-03 06:54:00
2:30 AM,48.2,46.4,93,29.47,10.0,SSW,6.9,-,N/A,,Scattered Clouds,210,2012-03-03 07:30:00
2:54 AM,48.0,46.0,93,29.48,10.0,SSW,9.2,-,N/A,,Partly Cloudy,210,2012-03-03 07:54:00
3:54 AM,46.9,42.1,83,29.48,10.0,SW,12.7,20.7,N/A,,Partly Cloudy,230,2012-03-03 08:54:00
4:21 AM,46.4,42.8,87,29.47,10.0,West,15.0,23.0,N/A,,Mostly Cloudy,280,2012-03-03 09:21:00
4:35 AM,44.6,37.4,76,29.47,10.0,West,18.4,31.1,N/A,,Scattered Clouds,270,2012-03-03 09:35:00
4:54 AM,44.1,36.0,73,29.51,10.0,West,21.9,31.1,N/A,,Clear,260,2012-03-03 09:54:00
5:44 AM,39.2,32.0,75,29.55,10.0,WSW,13.8,20.7,N/A,,Mostly Cloudy,240,2012-03-03 10:44:00
5:54 AM,39.0,30.9,73,29.60,10.0,West,10.4,18.4,N/A,,Overcast,260,2012-03-03 10:54:00
6:54 AM,35.1,27.0,72,29.62,10.0,WSW,15.0,27.6,N/A,,Mostly Cloudy,250,2012-03-03 11:54:00
7:04 AM,33.8,26.6,75,29.58,10.0,WSW,19.6,27.6,N/A,,Scattered Clouds,250,2012-03-03 12:04:00
7:54 AM,34.0,27.0,75,29.63,10.0,West,17.3,21.9,N/A,,Mostly Cloudy,260,2012-03-03 12:54:00
8:54 AM,34.0,27.0,75,29.62,10.0,WSW,12.7,27.6,N/A,,Mostly Cloudy,250,2012-03-03 13:54:00
9:15 AM,35.6,26.6,70,29.57,10.0,WSW,13.8,21.9,N/A,,Scattered Clouds,250,2012-03-03 14:15:00
9:54 AM,36.0,27.0,70,29.62,10.0,WSW,18.4,-,N/A,,Partly Cloudy,250,2012-03-03 14:54:00
10:54 AM,37.9,25.0,60,29.62,10.0,WSW,19.6,25.3,N/A,,Partly Cloudy,250,2012-03-03 15:54:00
11:54 AM,39.9,21.9,49,29.62,10.0,West,23.0,34.5,N/A,,Clear,260,2012-03-03 16:54:00
12:54 PM,41.0,21.0,45,29.59,10.0,West,21.9,34.5,N/A,,Partly Cloudy,260,2012-03-03 17:54:00
1:54 PM,41.0,21.9,47,29.58,10.0,West,21.9,35.7,N/A,,Scattered Clouds,260,2012-03-03 18:54:00
2:54 PM,37.9,23.0,55,29.60,10.0,West,18.4,29.9,N/A,,Overcast,270,2012-03-03 19:54:00
3:54 PM,37.9,21.9,53,29.62,10.0,WNW,21.9,29.9,N/A,,Overcast,290,2012-03-03 20:54:00
4:54 PM,36.0,21.9,57,29.67,10.0,West,16.1,28.8,N/A,,Overcast,280,2012-03-03 21:54:00
5:54 PM,36.0,21.0,55,29.69,10.0,West,16.1,26.5,N/A,,Overcast,270,2012-03-03 22:54:00
6:54 PM,34.0,19.9,56,29.72,10.0,West,15.0,20.7,N/A,,Scattered Clouds,270,2012-03-03 23:54:00
7:54 PM,33.1,19.9,59,29.74,10.0,West,11.5,-,N/A,,Clear,280,2012-03-04 00:54:00
8:54 PM,30.9,23.0,72,29.74,10.0,West,11.5,-,N/A,,Mostly Cloudy,280,2012-03-04 01:54:00
9:54 PM,30.9,23.0,72,29.75,10.0,West,8.1,-,N/A,,Overcast,260,2012-03-04 02:54:00
10:09 PM,30.2,21.2,69,29.70,10.0,West,11.5,16.1,N/A,,Overcast,270,2012-03-04 03:09:00
10:54 PM,30.0,18.0,61,29.76,10.0,West,16.1,27.6,0.00,,Overcast,280,2012-03-04 03:54:00
11:02 PM,28.4,17.6,64,29.70,10.0,West,17.3,25.3,N/A,,Overcast,270,2012-03-04 04:02:00
11:54 PM,28.9,17.1,61,29.76,10.0,West,12.7,21.9,N/A,,Overcast,270,2012-03-04 04:54:00